When you browse on this site, cookies collect data to enhance your experience and personalize the content and advertising you see.
Visit our Privacy Policy to learn more. By continuing to use the site, you agree to this use of cookies and data.
  • In France
  • List of Countries
  • For 7 days
  • Water Temperature
  • Weather Map
  • Weather Widgets
  • user-avatar
    Login

    Hourly Weather Banka

    Today, 18 September, Wednesday

    Time Temperature Precipitation Wind Pressure Humidity
    00:00 +25°C° 0 mm 2 mps 758 mmHg 78%
    01:00 +24°C° 0 mm 2 mps 758 mmHg 78%
    02:00 +24°C° 0 mm 2 mps 758 mmHg 78%
    03:00 +24°C° 0 mm 2 mps 759 mmHg 78%
    04:00 +24°C° 0 mm 2 mps 759 mmHg 72%
    05:00 +24°C° 0 mm 2 mps 760 mmHg 66%
    06:00 +24°C° 0 mm 3 mps 761 mmHg 61%
    07:00 +25°C° 0 mm 3 mps 761 mmHg 57%
    08:00 +27°C° 0 mm 3 mps 762 mmHg 53%
    09:00 +28°C° 0 mm 3 mps 762 mmHg 49%
    10:00 +29°C° 0 mm 3 mps 762 mmHg 50%
    11:00 +29°C° 0 mm 3 mps 762 mmHg 51%
    12:00 +29°C° 0 mm 4 mps 762 mmHg 52%
    13:00 +29°C° 0 mm 4 mps 762 mmHg 54%
    14:00 +29°C° 0 mm 4 mps 762 mmHg 56%
    15:00 +28°C° 0 mm 4 mps 761 mmHg 58%
    16:00 +27°C° 0 mm 5 mps 761 mmHg 63%
    17:00 +26°C° 0 mm 5 mps 761 mmHg 69%
    18:00 +26°C° 0 mm 6 mps 761 mmHg 74%
    19:00 +24°C° 0 mm 6 mps 762 mmHg 75%
    20:00 +25°C° 0 mm 5 mps 762 mmHg 75%
    21:00 +25°C° 0 mm 5 mps 762 mmHg 76%
    22:00 +25°C° 0 mm 5 mps 761 mmHg 78%
    23:00 +23°C° 0 mm 5 mps 761 mmHg 80%

    Tomorrow, 19 September, Thursday

    Time Temperature Precipitation Wind Pressure Humidity
    00:00 +23°C° 0 mm 4 mps 761 mmHg 82%
    01:00 +23°C° 0 mm 4 mps 761 mmHg 83%
    02:00 +23°C° 0 mm 4 mps 760 mmHg 85%
    03:00 +22°C° 0 mm 3 mps 760 mmHg 86%
    04:00 +22°C° 0 mm 3 mps 760 mmHg 87%
    05:00 +22°C° 0 mm 4 mps 760 mmHg 87%
    06:00 +22°C° 0 mm 4 mps 760 mmHg 88%
    07:00 +25°C° 0 mm 3 mps 760 mmHg 76%
    08:00 +27°C° 0 mm 3 mps 761 mmHg 65%
    09:00 +28°C° 0 mm 3 mps 761 mmHg 54%
    10:00 +29°C° 0 mm 3 mps 761 mmHg 51%
    11:00 +30°C° 0 mm 3 mps 761 mmHg 47%
    12:00 +32°C° 0 mm 2 mps 761 mmHg 43%
    13:00 +32°C° 0 mm 4 mps 761 mmHg 47%
    14:00 +30°C° 0 mm 5 mps 761 mmHg 51%
    15:00 +30°C° 0 mm 6 mps 761 mmHg 54%
    16:00 +28°C° 0 mm 7 mps 761 mmHg 59%
    17:00 +27°C° 0 mm 8 mps 761 mmHg 65%
    18:00 +24°C° 0 mm 8 mps 762 mmHg 70%
    19:00 +24°C° 0 mm 8 mps 762 mmHg 73%
    20:00 +24°C° 0 mm 8 mps 763 mmHg 75%
    21:00 +23°C° 0 mm 8 mps 763 mmHg 78%
    22:00 +23°C° 0 mm 8 mps 763 mmHg 78%
    23:00 +23°C° 0 mm 8 mps 763 mmHg 78%

    Day after tomorrow, 20 September, Friday

    Time Temperature Precipitation Wind Pressure Humidity
    00:00 +22°C° 0 mm 8 mps 763 mmHg 79%
    01:00 +22°C° 0 mm 7 mps 763 mmHg 77%
    02:00 +22°C° 0 mm 7 mps 762 mmHg 76%
    03:00 +22°C° 0 mm 7 mps 762 mmHg 75%
    04:00 +22°C° 0 mm 6 mps 762 mmHg 75%
    05:00 +22°C° 0 mm 6 mps 762 mmHg 74%
    06:00 +22°C° 0 mm 5 mps 762 mmHg 74%
    07:00 +22°C° 0 mm 5 mps 762 mmHg 70%
    08:00 +23°C° 0 mm 6 mps 762 mmHg 66%
    09:00 +24°C° 0 mm 6 mps 762 mmHg 62%
    10:00 +25°C° 0 mm 5 mps 762 mmHg 60%
    11:00 +26°C° 0 mm 5 mps 761 mmHg 57%
    12:00 +27°C° 0 mm 4 mps 760 mmHg 55%
    13:00 +26°C° 0 mm 4 mps 760 mmHg 55%
    14:00 +26°C° 0 mm 4 mps 759 mmHg 55%
    15:00 +26°C° 0 mm 3 mps 758 mmHg 56%
    16:00 +26°C° 0 mm 3 mps 758 mmHg 59%
    17:00 +25°C° 0 mm 3 mps 758 mmHg 63%
    18:00 +24°C° 0 mm 3 mps 758 mmHg 66%
    19:00 +24°C° 0 mm 3 mps 758 mmHg 69%
    20:00 +23°C° 0 mm 2 mps 758 mmHg 71%
    21:00 +23°C° 0 mm 2 mps 758 mmHg 74%
    22:00 +23°C° 0 mm 2 mps 758 mmHg 76%
    23:00 +22°C° 0 mm 1 mps 757 mmHg 78%

    21 September, Saturday

    Time Temperature Precipitation Wind Pressure Humidity
    00:00 +22°C° 0 mm 1 mps 757 mmHg 81%
    01:00 +22°C° 0 mm 1 mps 757 mmHg 82%
    02:00 +22°C° 0 mm 1 mps 757 mmHg 83%
    03:00 +21°C° 0 mm 1 mps 756 mmHg 84%
    04:00 +21°C° 0 mm 2 mps 757 mmHg 83%
    05:00 +21°C° 0 mm 2 mps 757 mmHg 81%
    06:00 +21°C° 0 mm 3 mps 757 mmHg 80%
    07:00 +22°C° 0 mm 4 mps 757 mmHg 71%
    08:00 +23°C° 0 mm 6 mps 758 mmHg 63%
    09:00 +24°C° 0 mm 7 mps 758 mmHg 55%
    10:00 +24°C° 0 mm 8 mps 758 mmHg 54%
    11:00 +26°C° 0 mm 8 mps 758 mmHg 53%
    12:00 +26°C° 0 mm 9 mps 758 mmHg 52%
    13:00 +26°C° 0 mm 10 mps 757 mmHg 54%
    14:00 +24°C° 0 mm 10 mps 757 mmHg 55%
    15:00 +24°C° 0 mm 10 mps 757 mmHg 57%
    16:00 +23°C° 0 mm 10 mps 757 mmHg 60%
    17:00 +22°C° 0 mm 10 mps 757 mmHg 63%
    18:00 +21°C° 0 mm 9 mps 758 mmHg 66%
    19:00 +21°C° 0 mm 9 mps 758 mmHg 66%
    20:00 +21°C° 0 mm 9 mps 759 mmHg 66%
    21:00 +21°C° 0 mm 9 mps 760 mmHg 66%
    22:00 +19°C° 0.1 mm 10 mps 760 mmHg 69%
    23:00 +18°C° 0.1 mm 11 mps 761 mmHg 72%

    22 September, Sunday

    Time Temperature Precipitation Wind Pressure Humidity
    00:00 +17°C° 0.1 mm 12 mps 762 mmHg 75%
    01:00 +17°C° 0.5 mm 11 mps 762 mmHg 74%
    02:00 +17°C° 0.5 mm 9 mps 763 mmHg 73%
    03:00 +17°C° 0.5 mm 8 mps 763 mmHg 72%
    04:00 +16°C° 0.1 mm 9 mps 764 mmHg 71%
    05:00 +16°C° 0.1 mm 9 mps 765 mmHg 69%
    06:00 +16°C° 0.1 mm 10 mps 766 mmHg 68%
    07:00 +16°C° 0.1 mm 10 mps 767 mmHg 63%
    08:00 +16°C° 0.1 mm 9 mps 768 mmHg 57%
    09:00 +17°C° 0.1 mm 9 mps 769 mmHg 52%
    10:00 +18°C° 0 mm 8 mps 769 mmHg 49%
    11:00 +20°C° 0 mm 7 mps 770 mmHg 46%
    12:00 +20°C° 0 mm 7 mps 770 mmHg 43%
    13:00 +20°C° 0 mm 6 mps 770 mmHg 43%
    14:00 +20°C° 0 mm 6 mps 769 mmHg 42%
    15:00 +20°C° 0 mm 6 mps 769 mmHg 41%
    16:00 +20°C° 0 mm 5 mps 769 mmHg 44%
    17:00 +19°C° 0 mm 5 mps 769 mmHg 46%
    18:00 +17°C° 0 mm 5 mps 769 mmHg 49%
    19:00 +18°C° 0 mm 4 mps 769 mmHg 51%
    20:00 +18°C° 0 mm 4 mps 769 mmHg 53%
    21:00 +18°C° 0 mm 4 mps 769 mmHg 56%
    22:00 +18°C° 0 mm 4 mps 769 mmHg 57%
    23:00 +18°C° 0 mm 4 mps 769 mmHg 58%

    23 September, Monday

    Time Temperature Precipitation Wind Pressure Humidity
    00:00 +18°C° 0 mm 4 mps 768 mmHg 59%
    01:00 +18°C° 0 mm 3 mps 768 mmHg 60%
    02:00 +18°C° 0 mm 3 mps 768 mmHg 61%
    03:00 +19°C° 0 mm 3 mps 768 mmHg 61%
    04:00 +19°C° 0 mm 3 mps 768 mmHg 63%
    05:00 +19°C° 0 mm 3 mps 768 mmHg 64%
    06:00 +19°C° 0 mm 3 mps 768 mmHg 66%
    07:00 +18°C° 0.1 mm 2 mps 768 mmHg 68%
    08:00 +18°C° 0.1 mm 2 mps 768 mmHg 70%
    09:00 +18°C° 0.1 mm 2 mps 768 mmHg 73%
    10:00 +18°C° 0.1 mm 2 mps 768 mmHg 72%
    11:00 +18°C° 0.1 mm 2 mps 767 mmHg 71%
    12:00 +19°C° 0.1 mm 2 mps 767 mmHg 70%
    13:00 +19°C° 0 mm 2 mps 766 mmHg 69%
    14:00 +20°C° 0 mm 2 mps 766 mmHg 67%
    15:00 +20°C° 0 mm 2 mps 765 mmHg 65%
    16:00 +20°C° 0 mm 3 mps 765 mmHg 66%
    17:00 +20°C° 0 mm 3 mps 765 mmHg 67%
    18:00 +20°C° 0 mm 3 mps 766 mmHg 68%
    19:00 +20°C° 0 mm 3 mps 766 mmHg 67%
    20:00 +20°C° 0 mm 4 mps 766 mmHg 67%
    21:00 +21°C° 0 mm 4 mps 766 mmHg 66%
    22:00 +21°C° 0 mm 4 mps 766 mmHg 66%
    23:00 +21°C° 0 mm 4 mps 766 mmHg 65%
    Show more